Regional Weather Roundup
Issued by NWS Northern Indiana

Home | Current Version | Previous Version | Graphics & Text | Print | Product List | Glossary Off
Versions: 1 2 3 4 5 6 7 8 9 10 11 12 13 14 15 16 17 18 19 20 21 22 23 24 25 26 27 28 29 30 31 32 33 34 35 36 37 38 39 40 41 42 43 44 45 46 47 48 49 50

000
ASUS43 KIWX 230210
RWRIWX

KIWX WEATHER ROUNDUP
NATIONAL WEATHER SERVICE NORTHERN INDIANA
1000 PM EDT TUE JUL 22 2014

NOTE: "FAIR" INDICATES FEW OR NO CLOUDS BELOW 12,000 FEET WITH NO
SIGNIFICANT WEATHER AND/OR OBSTRUCTIONS TO VISIBILITY.

* THESE STATIONS ARE NOT UNDER NWS QUALITY CONTROL. THEY ALSO MAY NOT
  REPORT WEATHER SUCH AS PRECIPITATION OR FOG.

INZ001>027-230300-
NORTHERN INDIANA

CITY           SKY/WX    TMP DP  RH WIND       PRES   REMARKS
GARY*          MOCLDY    84  73  70 SW6       29.96S
VALPARAISO     CLOUDY    80  71  74 SW9       29.99R
MICHIGAN CITY* MOCLDY    79  70  73 SW6       29.97S
LAPORTE*       CLOUDY    78  71  77 SW9       29.99S
KNOX*          MOCLDY    78  69  72 SW7       29.98S
SOUTH BEND     CLOUDY    82  69  64 SW12      29.98R
GOSHEN         FAIR      80  69  69 SW8       29.98S
MONTICELLO*    FAIR      78  70  78 S6        29.98F
LOGANSPORT*    FAIR      73  68  83 S6        30.01S
ROCHESTER*     FAIR      81  68  65 SW3       30.00S
WARSAW*        FAIR      79  70  73 SW3       30.00R
ANGOLA*        MOCLDY    79  70  73 SW5       29.99S
FORT WAYNE     MOCLDY    77  67  71 SW7       30.00F
HUNTINGTON*    MOCLDY    78  69  72 SW3       30.00S
PERU/GRISSOM   FAIR      76  74  94 S6        30.00F
MARION*        FAIR      74  67  78 SW6       30.02F

$$
INZ028>050-230300-
CENTRAL INDIANA

CITY           SKY/WX    TMP DP  RH WIND       PRES   REMARKS
LAFAYETTE      FAIR      77  71  82 S5        29.99S
KOKOMO*        FAIR      79  70  73 SW8       30.01F
MUNCIE*        FAIR      79  65  62 SW5       30.03F
INDIANAPOLIS   FAIR      77  68  73 SW7       30.04S

$$
MIZ043>046-050>051-056>058-064>065-071>073-077>080-230300-
SOUTHWEST LOWER MICHIGAN

CITY           SKY/WX    TMP DP  RH WIND       PRES   REMARKS
BATTLE CREEK   CLOUDY    81  68  64 SW9       29.96F
BENTON HARBOR  CLOUDY    81  71  71 SW7       29.94F
COLDWATER*     MOCLDY    79  69  71 SW5       29.98S
HILLSDALE*     FAIR      79  67  66 SW3       29.99F
HOLLAND        MOCLDY    83  71  67 SW14      29.93F
GRAND RAPIDS   CLOUDY    83  72  69 SW14      29.93F
KALAMAZOO      CLOUDY    81  69  67 SW8       29.96S
STURGIS*       CLOUDY    77  72  83 SW5       29.98S
THREE RIVERS*  CLOUDY    80  71  74 SW7       29.97S

$$
OHZ001>008-015>018-024>025-230300-
NORTHWEST OHIO

CITY           SKY/WX    TMP DP  RH WIND       PRES   REMARKS
WAUSEON*         N/A     79  68  69 SW7       29.98S
DEFIANCE       FAIR      80  66  62 SW5       29.98F
FINDLAY        FAIR      75  67  76 SW6       30.00R
TOLEDO EXPRESS FAIR      80  66  62 SW6       29.97F
TOLEDO METCALF FAIR      81  65  58 SW9       29.98S
LIMA           FAIR      80  66  62 SW8       30.02R

$$
&&


USA.gov is the U.S. government's official web portal to all federal, state and local government web resources and services.